This demonstration page uses our WeatherBlox Daily Observations layout. Learn more.

Left ArrowRight Arrow

Hourly Observations for October 14, 2021

Temp ( °F °C ) Dew Point ( °F °C ) Humidity (%) Winds ( mph kmh ) Pressure ( in mb ) Visibility ( mi km ) Precip ( " mm )
12:53 am 00:53 Clear 65 18.3 64 17.8 97 97 Calm 30.03 1017 7 11 0.00 0.00
1:53 am 01:53 Clear 65 18.3 64 17.8 97 97 Calm 30.02 1017 10 16 0.00 0.00
2:53 am 02:53 Clear with Mist and Fog 64 17.8 62 16.7 93 93 Calm 30.02 1017 6 10 0.00 0.00
3:53 am 03:53 Clear 63 17.2 61 16.1 93 93 Calm 30.01 1016 9 14 0.00 0.00
4:53 am 04:53 Clear 62 16.7 61 16.1 96 96 Calm 30.01 1016 8 13 0.00 0.00
5:53 am 05:53 Clear 61 16.1 60 15.6 97 97 Calm 30.01 1016 7 11 0.00 0.00
6:53 am 06:53 Clear 61 16.1 60 15.6 97 97 Calm 30.02 1017 8 13 0.00 0.00
7:53 am 07:53 Sunny 61 16.1 60 15.6 97 97 Calm 30.02 1017 8 13 0.00 0.00
8:53 am 08:53 Sunny with Light Rain 66 18.9 63 17.2 90 90 Calm 30.05 1018 10 16 0.00 0.00
9:53 am 09:53 Sunny 70 21.1 66 18.9 87 87 Calm 30.06 1018 10 16 0.00 0.00
10:53 am 10:53 Sunny 74 23.3 65 18.3 74 74 Calm 30.06 1018 10 16 0.00 0.00
11:53 am 11:53 Sunny 76 24.4 65 18.3 69 69 VRB 3 6 30.04 1017 10 16 0.00 0.00
12:53 pm 12:53 Sunny 80 26.7 64 17.8 58 58 VRB 3 6 30.03 1017 10 16 0.00 0.00
1:53 pm 13:53 Sunny 80 26.7 64 17.8 58 58 SW 5 7 29.99 1016 10 16 0.00 0.00
2:53 pm 14:53 Sunny 82 27.8 64 17.8 55 55 SSE 6 9 29.96 1015 10 16 0.00 0.00
3:53 pm 15:53 Sunny 81 27.2 64 17.8 57 57 Calm 29.95 1014 10 16 0.00 0.00
4:53 pm 16:53 Mostly Sunny 81 27.2 63 17.2 54 54 Calm 29.94 1014 10 16 0.00 0.00
5:53 pm 17:53 Sunny 80 26.7 63 17.2 56 56 SW 5 7 29.94 1014 10 16 0.00 0.00
6:53 pm 18:53 Sunny 79 26.1 64 17.8 60 60 Calm 29.95 1014 10 16 0.00 0.00
7:53 pm 19:53 Clear 73 22.8 67 19.4 81 81 Calm 29.96 1015 10 16 0.00 0.00
8:53 pm 20:53 Clear 70 21.1 67 19.4 90 90 Calm 29.97 1015 10 16 0.00 0.00
9:53 pm 21:53 Clear 69 20.6 66 18.9 90 90 Calm 29.98 1015 10 16 0.00 0.00
10:53 pm 22:53 Clear 68 20 66 18.9 93 93 Calm 29.99 1016 10 16 0.00 0.00
11:53 pm 23:53 Clear 67 19.4 65 18.3 93 93 Calm 29.99 1016 10 16 0.00 0.00

Powered by AerisWeather